Location: Unspecified
(0.0000°N, 0.0000°E)
Time: 02:36:58
(UTC+00:00)

Vanguard 1 Rocket - Visible Passes

Search period start: 26 July 2016 00:00
Search period end: 05 August 2016 00:00
Orbit: 652 x 4225 km, 34.3° (Epoch: 25 July)

Date Brightness Start Highest point End Pass type
(mag) Time Alt. Az. Time Alt. Az. Time Alt. Az.
29 Jul 10.0 20:04:12 10° SSW 20:06:12 12° S 20:06:12 12° S visible
30 Jul 10.0 18:51:59 10° S 18:54:45 11° S 18:57:10 10° SSE visible
31 Jul 9.7 20:05:29 10° SSW 20:09:53 18° S 20:09:53 18° S visible
01 Aug 9.7 18:52:36 10° SSW 18:59:02 15° SSE 19:03:08 11° SE visible
01 Aug 10.3 21:20:01 10° SW 21:20:28 11° SW 21:20:28 11° SW visible
02 Aug 9.2 20:07:24 10° SSW 20:13:45 27° S 20:13:45 27° S visible
03 Aug 9.4 18:54:10 10° SSW 19:03:09 22° SSE 19:07:04 16° SE visible
03 Aug 10.1 21:22:49 10° SW 21:24:24 15° SW 21:24:24 15° SW visible
04 Aug 8.7 20:09:39 10° SW 20:17:46 41° S 20:17:46 41° S visible
